[[{"header":{"parameterUnit":"m.s-1","parameterCategory":1,"la1":30.2991,"la2":30.254,"lo1":-89.0895,"lo2":-89.0444,"dy":0.0017,"dx":0.0017,"nx":28,"ny":28,"refTime":"2025-02-10T09:00:00:Z","depth":0,"parameterNumber":2,"parameterNumberName":"U-component_of_WINDS"},"data":[0,0,0,0,0,0,0,0,0,0,0,0,0,0,0,0,0,0,0,0,0,0,0,0,0,0,0,0,0,0,0,0,0,0,0,0,0,0,0,0,0,0,0,0,0,0,0,0,0,0,0,0,0,0,0,0,0,0,-2.4226,-2.4226,0,-2.4278,-2.4279,-2.428,-2.4225,-2.4223,-2.4221,-2.4219,-2.4275,-2.4278,-2.4282,0,0,0,0,0,0,0,0,0,0,0,0,0,-2.4079,-2.4082,-2.4225,-2.4226,-2.4227,-2.4278,-2.4279,-2.428,-2.4225,-2.4223,-2.422,-2.4218,-2.4274,-2.4278,-2.4282,0,0,0,0,0,0,0,0,0,0,0,0,0,-2.4139,-2.4083,-2.4225,-2.4206,-2.4205,-2.4278,-2.4279,-2.428,-2.4226,-2.4223,-2.422,-2.4217,-2.4272,-2.4278,-2.4283,-2.4379,0,0,-2.4299,-2.4301,0,0,0,0,0,0,0,0,-2.4135,-2.4144,-2.4208,-2.4207,-2.4206,-2.4242,-2.4248,-2.4313,-2.4227,-2.4218,-2.4219,-2.4215,-2.4267,-2.4272,-2.4289,-2.4381,-2.4384,-2.4299,-2.4302,-2.4304,-2.4306,0,0,0,0,0,0,0,-2.4131,-2.4141,-2.4246,-2.4209,-2.4208,-2.4195,-2.42,-2.426,-2.426,-2.4218,-2.4215,-2.4222,-2.4266,-2.4284,-2.429,-2.4384,-2.4299,-2.4304,-2.4307,-2.4309,-2.4559,-2.4562,0,0,0,0,0,0,-2.4129,-2.4138,-2.4245,-2.4248,-2.4162,-2.42,-2.4206,-2.4234,-2.4259,-2.426,-2.4224,-2.4219,-2.4277,-2.4284,-2.4292,-2.4406,-2.4304,-2.4309,-2.4312,-2.4555,-2.4559,-2.4563,0,0,0,0,0,0,-2.4126,-2.4139,-2.4243,-2.4192,-2.4204,-2.4206,-2.4238,-2.4236,-2.4255,-2.4263,-2.4263,-2.4243,-2.4275,-2.4284,-2.4357,-2.4407,-2.4312,-2.4316,-2.4551,-2.4556,-2.4561,-2.4636,0,0,0,0,0,0,-2.4122,-2.4138,-2.4174,-2.4193,-2.4207,-2.4307,-2.4241,-2.424,-2.4264,-2.4257,-2.4281,-2.4282,-2.4273,-2.435,-2.4363,-2.4413,-2.4321,-2.4547,-2.4553,-2.456,-2.4629,-2.4643,-2.4655,0,0,0,0,0,-2.4117,-2.4194,-2.4176,-2.419,-2.4252,-2.431,-2.4318,-2.4306,-2.4268,-2.4305,-2.431,-2.4281,-2.44,-2.4358,-2.4372,-2.4424,-2.4543,-2.4551,-2.4559,-2.4623,-2.464,-2.4655,0,0,0,0,0,0,-2.4181,-2.4196,-2.4177,-2.4262,-2.4285,-2.4301,-2.4346,-2.4324,-2.4359,-2.4352,-2.4335,-2.4341,-2.4418,-2.4428,-2.4382,-2.4519,-2.4466,-2.4477,-2.451,-2.4526,-2.4539,-2.4535,-2.4325,0,0,0,0,0,-2.4205,-2.425,-2.4261,-2.4334,-2.4347,-2.4345,-2.437,-2.4358,-2.4382,-2.4391,-2.4402,-2.4427,-2.4469,-2.4498,-2.4538,-2.463,-2.4635,-2.4673,-2.4686,-2.4697,-2.4707,-2.4757,-2.4774,-2.4589,-2.4589,-2.4589,0,0,-2.4255,-2.4269,-2.4298,-2.4348,-2.4364,-2.4412,-2.4354,-2.4406,-2.4442,-2.44,-2.4469,-2.4478,-2.4504,-2.4587,-2.4625,-2.4598,-2.4759,-2.4707,-2.4715,-2.4719,-2.4767,-2.4784,-2.48,-2.4594,-2.4593,-2.4593,0,0,-2.4371,-2.4385,-2.4449,-2.4466,-2.4492,-2.449,-2.4505,-2.4525,-2.4529,-2.4598,-2.4567,-2.4609,-2.4683,-2.4704,-2.4724,-2.4847,-2.4822,-2.486,-2.4929,-2.4978,-2.4993,-2.5006,-2.505,-2.5066,-2.487,-2.487,-2.4871,0,-2.443,-2.45,-2.4484,-2.4539,-2.4562,-2.4525,-2.459,-2.4608,-2.4646,-2.4663,-2.4633,-2.4725,-2.474,-2.4828,-2.4858,-2.4875,-2.4892,-2.4858,-2.4992,-2.5004,-2.5016,-2.5059,-2.5076,-2.4875,-2.4874,-2.4874,-2.4874,0,-2.4572,-2.4621,-2.4669,-2.4706,-2.4735,-2.4794,-2.4788,-2.4819,-2.4805,-2.4806,-2.4877,-2.4894,-2.4937,-2.4957,-2.4944,-2.5043,-2.5026,-2.4994,-2.494,-2.5039,-2.5078,-2.5095,-2.4882,-2.488,-2.4879,-2.4877,0,0,-2.473,-2.4757,-2.4776,-2.4792,-2.4818,-2.4856,-2.4914,-2.4955,-2.4982,-2.5009,-2.5058,-2.5121,-2.5092,-2.5115,-2.5104,-2.5146,-2.5244,-2.5109,-2.511,-2.5134,-2.5355,-2.538,-2.5399,-2.5227,-2.523,-2.5233,-2.5353,0,-2.4847,-2.4948,-2.4935,-2.5032,-2.5077,-2.5043,-2.5093,-2.5115,-2.5118,-2.5158,-2.5161,-2.5206,-2.5164,-2.5177,-2.5218,-2.5224,-2.5288,-2.5215,-2.5273,-2.5276,-2.5269,-2.5419,-2.5445,-2.5558,-2.5369,-2.5371,-2.5373,0,-2.4998,-2.503,-2.5131,-2.5149,-2.5168,-2.5214,-2.5251,-2.5289,-2.5313,-2.5312,-2.5337,-2.5318,-2.5377,-2.5322,-2.5403,-2.5353,-2.5377,-2.5383,-2.5387,-2.5393,-2.5331,-2.543,-2.5594,-2.5611,-2.5397,-2.5395,-2.5394,0,-2.5104,-2.5173,-2.5242,-2.5257,-2.528,-2.5314,-2.5325,-2.5345,-2.5371,-2.5404,-2.542,-2.5459,-2.5481,-2.5512,-2.5504,-2.5464,-2.5588,-2.5532,-2.5589,-2.559,-2.5618,-2.5616,-2.5789,-2.5632,-2.5631,-2.5631,-2.5631,0,-2.5237,-2.53,-2.529,-2.5333,-2.5403,-2.5388,-2.5458,-2.5465,-2.5484,-2.5528,-2.55,-2.5542,-2.5529,-2.5571,-2.5565,-2.5634,-2.5644,-2.5645,-2.5643,-2.5648,-2.5648,-2.5664,-2.5656,-2.5635,-2.5635,-2.5634,-2.5633,0,-2.5368,-2.5364,-2.5437,-2.5453,-2.5459,-2.551,-2.5523,-2.5564,-2.5564,-2.562,-2.5633,-2.5634,-2.5681,-2.5676,-2.573,-2.5726,-2.5811,-2.58,-2.5803,-2.5801,-2.586,-2.5854,-2.6049,-2.6074,-2.59,-2.5901,-2.5903,0,-2.5453,-2.5501,-2.5522,-2.5549,-2.5563,-2.5607,-2.5633,-2.562,-2.5648,-2.5679,-2.5716,-2.5761,-2.5796,-2.5874,-2.588,-2.592,-2.591,-2.5975,-2.5916,-2.5919,-2.5912,-2.5909,-2.5914,-2.5987,-2.5989,-2.5991,-2.5992,0,-2.5605,-2.5601,-2.5639,-2.5677,-2.5708,-2.5738,-2.5764,-2.5788,-2.5778,-2.5811,-2.5859,-2.5886,-2.594,-2.5985,-2.6024,-2.6036,-2.6013,-2.601,-2.6026,-2.6032,-2.6033,-2.6034,-2.5836,-2.6006,-2.6005,-2.6004,-2.6003,-2.6002,-2.5717,-2.5758,-2.5779,-2.5823,-2.5841,-2.5866,-2.5905,-2.591,-2.595,-2.5993,-2.5983,-2.6037,-2.606,-2.6109,-2.6125,-2.6167,-2.6144,-2.6167,-2.6172,-2.6178,-2.6185,-2.6025,-2.6174,-2.6174,-2.6174,-2.6173,-2.6173,0,-2.5868,-2.588,-2.592,-2.5958,-2.5992,-2.5966,-2.5994,-2.6025,-2.6073,-2.6096,-2.6131,-2.6186,-2.623,-2.6239,-2.628,-2.6313,-2.6303,-2.6324,-2.6322,-2.6325,-2.6204,-2.6186,-2.6331,-2.6331,-2.6331,-2.6331,-2.6331,-2.6331,-2.5951,-2.602,-2.6018,-2.6095,-2.6106,-2.6159,-2.6177,-2.62,-2.6218,-2.6281,-2.6317,-2.6322,-2.634,-2.6383,-2.6422,-2.6423,-2.644,-2.6466,-2.6463,-2.635,-2.6334,-2.6319,-2.6302,-2.6469,-2.647,-2.6581,-2.6582,-2.6583]},{"header":{"parameterUnit":"m.s-1","parameterCategory":1,"la1":30.2991,"la2":30.254,"lo1":-89.0895,"lo2":-89.0444,"dy":0.0017,"dx":0.0017,"nx":28,"ny":28,"refTime":"2025-02-10T09:00:00:Z","depth":0,"parameterNumber":3,"parameterNumberName":"V-component_of_WINDS"},"data":[0,0,0,0,0,0,0,0,0,0,0,0,0,0,0,0,0,0,0,0,0,0,0,0,0,0,0,0,0,0,0,0,0,0,0,0,0,0,0,0,0,0,0,0,0,0,0,0,0,0,0,0,0,0,0,0,0,0,-4.701,-4.7009,0,-4.697,-4.6969,-4.6969,-4.6875,-4.6873,-4.6871,-4.687,-4.6831,-4.6832,-4.6833,0,0,0,0,0,0,0,0,0,0,0,0,0,-4.7007,-4.7007,-4.701,-4.7009,-4.7009,-4.697,-4.6969,-4.6969,-4.6876,-4.6873,-4.6871,-4.6869,-4.6831,-4.6832,-4.6833,0,0,0,0,0,0,0,0,0,0,0,0,0,-4.6992,-4.7007,-4.701,-4.6957,-4.6952,-4.697,-4.6969,-4.6969,-4.6876,-4.6873,-4.687,-4.6868,-4.683,-4.6832,-4.6833,-4.6899,0,0,-4.6836,-4.6837,0,0,0,0,0,0,0,0,-4.6993,-4.6992,-4.6966,-4.6961,-4.6955,-4.6924,-4.6954,-4.6945,-4.6877,-4.6905,-4.6869,-4.6866,-4.6865,-4.6863,-4.6862,-4.6897,-4.6895,-4.6837,-4.6837,-4.6838,-4.6838,0,0,0,0,0,0,0,-4.6994,-4.6993,-4.6994,-4.6965,-4.6959,-4.6936,-4.6931,-4.6952,-4.6902,-4.6902,-4.6896,-4.6892,-4.6861,-4.6861,-4.686,-4.6895,-4.6836,-4.6838,-4.6838,-4.6839,-4.6981,-4.6984,0,0,0,0,0,0,-4.7002,-4.6995,-4.6995,-4.6993,-4.6967,-4.6939,-4.6933,-4.6937,-4.6901,-4.6893,-4.6895,-4.6888,-4.686,-4.6859,-4.6859,-4.6933,-4.6838,-4.6839,-4.684,-4.6978,-4.6982,-4.6985,0,0,0,0,0,0,-4.7002,-4.7003,-4.6997,-4.6992,-4.6989,-4.6942,-4.6948,-4.6938,-4.6938,-4.6895,-4.6886,-4.6903,-4.6858,-4.6857,-4.6889,-4.693,-4.6839,-4.684,-4.6975,-4.6979,-4.6984,-4.7083,0,0,0,0,0,0,-4.7003,-4.7004,-4.7028,-4.6993,-4.699,-4.7028,-4.695,-4.6939,-4.694,-4.693,-4.6901,-4.6893,-4.6856,-4.6888,-4.689,-4.693,-4.6841,-4.6971,-4.6977,-4.6982,-4.7076,-4.709,-4.7103,0,0,0,0,0,-4.7003,-4.7058,-4.703,-4.703,-4.7019,-4.703,-4.7029,-4.6983,-4.6943,-4.6967,-4.694,-4.6894,-4.6925,-4.6892,-4.6894,-4.6935,-4.6968,-4.6975,-4.6982,-4.707,-4.7087,-4.7103,0,0,0,0,0,0,-4.71,-4.7053,-4.7021,-4.7066,-4.7053,-4.7015,-4.7044,-4.7004,-4.7002,-4.6994,-4.6938,-4.6932,-4.6972,-4.6957,-4.692,-4.6997,-4.6939,-4.6947,-4.7005,-4.7022,-4.7035,-4.7038,-4.6842,0,0,0,0,0,-4.7127,-4.7139,-4.7097,-4.7141,-4.7136,-4.7091,-4.7095,-4.7061,-4.7045,-4.704,-4.7015,-4.7002,-4.7009,-4.7014,-4.7018,-4.7073,-4.7065,-4.7102,-4.7116,-4.7127,-4.7134,-4.7162,-4.7178,-4.7008,-4.7008,-4.7008,0,0,-4.7182,-4.7158,-4.7169,-4.716,-4.7146,-4.7161,-4.7087,-4.7106,-4.7117,-4.7043,-4.7071,-4.7053,-4.7035,-4.7079,-4.7097,-4.7067,-4.7179,-4.7136,-4.7145,-4.7146,-4.7171,-4.7187,-4.7201,-4.7013,-4.7012,-4.7011,0,0,-4.729,-4.7273,-4.7308,-4.7295,-4.7274,-4.7244,-4.7252,-4.722,-4.7204,-4.7232,-4.7176,-4.7188,-4.7201,-4.7191,-4.7187,-4.7291,-4.7249,-4.7294,-4.7365,-4.7392,-4.7406,-4.7417,-4.7454,-4.7468,-4.7301,-4.7302,-4.7302,0,-4.7362,-4.7381,-4.7331,-4.7353,-4.7351,-4.7283,-4.7318,-4.7308,-4.7291,-4.7291,-4.7257,-4.7272,-4.7255,-4.7295,-4.732,-4.732,-4.7328,-4.7297,-4.7408,-4.7419,-4.7429,-4.7464,-4.7478,-4.7307,-4.7306,-4.7306,-4.7305,0,-4.7471,-4.7485,-4.7516,-4.7499,-4.75,-4.7529,-4.7483,-4.749,-4.7456,-4.743,-4.7459,-4.7436,-4.7434,-4.7441,-4.7408,-4.7477,-4.7459,-4.7418,-4.7359,-4.7452,-4.7483,-4.7496,-4.7315,-4.7313,-4.7311,-4.731,0,0,-4.764,-4.7594,-4.7606,-4.7598,-4.7569,-4.758,-4.7605,-4.7603,-4.761,-4.76,-4.762,-4.7632,-4.7594,-4.759,-4.7555,-4.7579,-4.7663,-4.7535,-4.7533,-4.7559,-4.7737,-4.7768,-4.7785,-4.7634,-4.7637,-4.7639,-4.7738,0,-4.7742,-4.7782,-4.7737,-4.7787,-4.78,-4.7735,-4.7758,-4.7743,-4.7719,-4.7726,-4.77,-4.7709,-4.7657,-4.7654,-4.7675,-4.7648,-4.7698,-4.764,-4.7653,-4.7654,-4.766,-4.7801,-4.7834,-4.793,-4.775,-4.7752,-4.7754,0,-4.7866,-4.7861,-4.7912,-4.788,-4.7884,-4.7904,-4.7898,-4.7906,-4.7888,-4.7868,-4.7864,-4.7822,-4.7845,-4.7788,-4.7819,-4.7781,-4.7783,-4.7771,-4.7773,-4.7773,-4.771,-4.7805,-4.7959,-4.7973,-4.7773,-4.7771,-4.777,0,-4.7985,-4.799,-4.8021,-4.8016,-4.798,-4.7996,-4.7981,-4.796,-4.7961,-4.7956,-4.7956,-4.7954,-4.7953,-4.7952,-4.7911,-4.7873,-4.7948,-4.7887,-4.7933,-4.7934,-4.7952,-4.7951,-4.8108,-4.7953,-4.7953,-4.7953,-4.7952,0,-4.8103,-4.8137,-4.8074,-4.8094,-4.813,-4.8077,-4.8115,-4.8094,-4.8076,-4.809,-4.8035,-4.805,-4.7994,-4.8003,-4.7971,-4.8001,-4.8001,-4.7987,-4.7978,-4.7992,-4.7994,-4.7993,-4.7985,-4.7956,-4.7956,-4.7955,-4.7954,0,-4.8242,-4.8201,-4.8231,-4.8194,-4.8185,-4.8213,-4.8181,-4.8198,-4.8169,-4.8188,-4.819,-4.8146,-4.8153,-4.8112,-4.8112,-4.8091,-4.8138,-4.8117,-4.8144,-4.8137,-4.8186,-4.8182,-4.8348,-4.8367,-4.82,-4.8202,-4.8203,0,-4.8321,-4.8345,-4.831,-4.8315,-4.8304,-4.8313,-4.8313,-4.8263,-4.8266,-4.8247,-4.8266,-4.8269,-4.8268,-4.8284,-4.8252,-4.8252,-4.8232,-4.829,-4.8231,-4.8245,-4.8233,-4.8232,-4.8234,-4.8302,-4.8304,-4.8306,-4.8308,0,-4.8465,-4.8443,-4.8446,-4.8441,-4.8443,-4.8437,-4.8428,-4.8435,-4.8381,-4.8387,-4.8393,-4.8393,-4.8393,-4.8397,-4.839,-4.8375,-4.8333,-4.8326,-4.8337,-4.8351,-4.8366,-4.8359,-4.8177,-4.8323,-4.8321,-4.832,-4.8319,-4.8319,-4.8576,-4.8595,-4.8573,-4.8577,-4.8564,-4.8557,-4.857,-4.8543,-4.8547,-4.8543,-4.8513,-4.8525,-4.8506,-4.8493,-4.8482,-4.8491,-4.8464,-4.8479,-4.8483,-4.8488,-4.8496,-4.8364,-4.849,-4.849,-4.8489,-4.8489,-4.8488,0,-4.8718,-4.87,-4.8705,-4.8692,-4.8696,-4.8654,-4.8641,-4.8647,-4.8659,-4.8644,-4.8644,-4.8652,-4.8655,-4.8623,-4.8622,-4.8636,-4.8616,-4.8637,-4.8636,-4.8633,-4.8521,-4.8512,-4.8653,-4.8653,-4.8653,-4.8653,-4.8653,-4.8653,-4.8792,-4.8821,-4.8796,-4.8819,-4.8801,-4.8812,-4.8808,-4.88,-4.8788,-4.8799,-4.8801,-4.878,-4.8758,-4.8755,-4.8756,-4.8747,-4.8749,-4.8777,-4.8761,-4.8657,-4.8641,-4.8626,-4.8617,-4.8778,-4.8778,-4.8872,-4.8873,-4.8874]}]]